Location: Spring Creek
(38.2870°N, 100.2160°W)
Time: 04:00:42
(UTC+00:00)

Cosmos 2278 Rocket - Pass Details

Date: 08 May 2021
Orbit: 841 x 845 km, 71.0° (Epoch: 22 June)

Event Time Altitude Azimuth Distance (km) Brightness Sun altitude
Exits shadow 04:08:15 49° 87° (E) 1,076 2.4 -24.5°
Drops below altitude 10° 04:13:09 10° 33° (NNE) 2,464 4.8 -25.1°
Sets 04:15:39 0° 28° (NNE) 3,402 5.7 -25.4°
